Retour au catalogue

COSMOS 2110

GLONASS

ActifNavigationMEO
NORAD 21007·PAYLOAD·🇷🇺 Russia

Lancé Dec 8, 1990 depuis Baikonur Cosmodrome

Loading…

Prochains Passages (prochaines 24 heures)

TLE

FraisSource: Space-Track

Époque: Sep 11, 2026, 15:17 UTC

1 21007U 90110B   26254.63727700  .00000002  00000-0  00000-0 0  9994
2 21007  64.9932  68.6077 0043038 200.4191 159.5805  2.13101425278317

Suivez COSMOS 2110 en temps réel avec AllMySat

Download on the App Store